This demonstration page uses our WeatherBlox Daily Observations layout. Learn more.

Left ArrowRight Arrow

39.01783, -85.05884

Hourly Observations for December 10, 2020

Temp ( °F °C ) Dew Point ( °F °C ) Humidity (%) Winds ( mph kmh ) Pressure ( in mb ) Visibility ( mi km ) Precip ( " mm )
12:52 am 00:52 Clear 38 3.3 32 undefined 79 79 N N/A 30.01 1016 9 14 N/A
1:52 am 01:52 Clear 37 2.8 31 -0.6 79 79 N N/A 30.01 1016 9 14 N/A
2:52 am 02:52 Clear 35 1.7 31 -0.6 85 85 SSE 3 6 30.03 1017 8 13 N/A
3:52 am 03:52 Clear 35 1.7 29 -1.7 78 78 N N/A 30.04 1017 8 13 N/A
4:52 am 04:52 Clear 35 1.7 30 -1.1 82 82 NNE 5 7 30.05 1018 9 14 N/A
5:52 am 05:52 Clear 35 1.7 30 -1.1 82 82 N N/A 30.06 1018 8 13 N/A
6:52 am 06:52 Mostly Clear 36 2.2 30 -1.1 79 79 N N/A 30.07 1018 8 13 N/A
7:52 am 07:52 Partly Cloudy with Mist and Fog 34 1.1 29 -1.7 82 82 N N/A 30.08 1019 6 10 N/A
8:52 am 08:52 Mostly Cloudy with Haze 37 2.8 31 -0.6 79 79 E 5 7 30.09 1019 6 10 N/A
9:52 am 09:52 Mostly Cloudy 44 6.7 35 1.7 71 71 SE 6 9 30.10 1019 7 11 N/A
10:52 am 10:52 Mostly Cloudy 49 9.4 36 2.2 61 61 SE 8 13 30.10 1019 8 13 N/A
11:52 am 11:52 Mostly Cloudy 54 12.2 36 2.2 51 51 SSE 12 19 30.07 1018 10 16 N/A
12:52 pm 12:52 Mostly Cloudy 57 13.9 37 2.8 47 47 S 9 15 30.05 1018 10 16 N/A
1:52 pm 13:52 Partly Cloudy 58 14.4 37 2.8 46 46 S 8 13 30.03 1017 10 16 N/A
2:52 pm 14:52 Mostly Sunny 59 15 36 2.2 42 42 S 9 15 30.02 1017 10 16 N/A
3:52 pm 15:52 Mostly Sunny 59 15 37 2.8 44 44 SSE 8 13 30.01 1016 10 16 N/A
4:52 pm 16:52 Mostly Sunny 54 12.2 36 2.2 51 51 S 8 13 30.01 1016 10 16 N/A
5:52 pm 17:52 Partly Cloudy 50 10 37 2.8 61 61 SE 7 11 30.02 1017 10 16 N/A
6:52 pm 18:52 Partly Cloudy 49 9.4 38 3.3 66 66 SSE 8 13 30.02 1017 10 16 N/A
7:52 pm 19:52 Mostly Clear 49 9.4 37 2.8 64 64 S 7 11 30.02 1017 10 16 N/A
8:52 pm 20:52 Clear 50 10 37 2.8 61 61 S 5 7 30.01 1016 10 16 N/A
9:52 pm 21:52 Clear 48 8.9 37 2.8 66 66 S 7 11 30.00 1016 10 16 N/A
10:52 pm 22:52 Clear 48 8.9 36 2.2 63 63 S 6 9 29.99 1016 10 16 N/A
11:52 pm 23:52 Clear 45 7.2 35 1.7 68 68 S 6 9 29.99 1016 10 16 N/A

Powered by AerisWeather